カタログに戻る

NIGERIASAT 1

運用中科学SSO
NORAD 27941·PAYLOAD·🇳🇬 Nigeria

打ち上げ Sep 27, 2003 から Plesetsk Cosmodrome

Loading…

次のパス (今後24時間)

TLE

最新Source: Space-Track

元期: Sep 14, 2026, 12:08 UTC

1 27941U 03042C   26257.50582513  .00000849  00000-0  91700-4 0  9995
2 27941  98.0023  90.4276 0042061 357.9121   2.1915 14.90507753237131

AllMySatでNIGERIASAT 1をリアルタイム追跡

Download on the App Store